{"data":{"norad_id":63478,"intl_designator":"2025-070U","name":"STARLINK-33695","alt_names":[],"object_type":"PAYLOAD","status":"ACTIVE","operator":null,"country":"US","launch_date":"2025-04-06","launch_site_code":"AFETR","launch_vehicle":null,"mission":null,"orbit_class":"UNKNOWN","rcs_meters":null,"size_class":null,"mass_kg":null,"dimensions":null,"purposes":["comms"],"wikipedia_slug":null,"has_3d_model":false,"image_url":null,"decayed_at":null,"tle_current":{"epoch":"2026-05-25T03:40:07.186944Z","epoch_age_seconds":72429,"freshness":"FRESH","line1":"1 63478U 25070U   26145.15286096 -.00004294  00000+0 -14670-3 0  9998","line2":"2 63478  43.0015 184.2199 0001609 278.9214  81.1456 15.27554832 64711","mean_motion":15.27554832,"eccentricity":0.0001609,"inclination_deg":43.0015,"raan_deg":184.2199,"arg_perigee_deg":278.9214,"mean_anomaly_deg":81.1456,"bstar":-0.0001467,"rev_number":6471,"period_min":94.26830185301,"perigee_km":482.02048215174,"apogee_km":484.22843608928,"semimajor_km":6861.2614591205,"source":"CELESTRAK","updated_at":"2026-05-25T13:38:20.008958Z"}}}